Weather Roundup
Issued by NWS Springfield, MO

Home | Current Version | Previous Version | Text Only | Print | Product List | Glossary On
Versions: 1 2 3 4 5 6 7 8 9 10 11 12 13 14 15 16 17 18 19 20 21 22 23 24 25 26 27 28 29 30 31 32 33 34 35 36 37 38 39 40 41 42 43 44 45 46 47 48 49 50
000
NZUS99 KSGF 140407
HRRSGF

HOURLY WEATHER
NATIONAL WEATHER SERVICE SPRINGFIELD MO
1000 PM CST SAT FEB 13 2016

......SGF CWA......

CITY           SKY/WX    TMP DP  RH WIND       PRES   REMARKS
SPRINGFIELD    CLOUDY    32   2  27 SE18      30.21R WCI  20
JOPLIN         CLOUDY    36   7  29 MISG      30.20R
WEST PLAINS    CLOUDY    23   2  40 SE8       30.32F WCI  14
ROLLA          CLOUDY    22   3  44 E10       30.29F WCI  11
OSAGE BEACH    CLOUDY    25   1  36 E7        30.30S WCI  17

......SURROUNDING SGF CWA......

CITY           SKY/WX    TMP DP  RH WIND       PRES   REMARKS
CHANUTE        CLOUDY    31   8  38 E8        30.17F WCI  23
PARSONS        CLOUDY    33  11  39 E6        30.18F WCI  28
COFFEYVILLE    CLOUDY    35  15  44 NE10      30.17F WCI  27
EMPORIA        CLOUDY    22   8  55 E13       30.14F WCI  10
GROVE OK       CLOUDY    43  18  36 S13       30.19R
ROGERS AR      CLOUDY    35   9  33 SE13      30.17R WCI  26
SILOAM SPRINGS CLEAR     36   9  32 S9        30.18R WCI  29
HARRISON AR    CLOUDY    30   8  39 SE18G28   30.22F WCI  18
NEAR YELLVILLE CLOUDY    28   5  37 E9        30.29F WCI  20

......KANSAS AND MISSOURI......

CITY           SKY/WX    TMP DP  RH WIND       PRES   REMARKS
KANSAS CTY INT CLOUDY    21   4  47 SE13      30.24F WCI   9
DOWNTOWN KC    CLOUDY    23   3  42 E9        30.26F WCI  13
COLUMBIA       CLOUDY    22   3  44 E12       30.33F WCI  10
SEDALIA        CLOUDY    24   3  40 E15       30.30S WCI  11
ST JOSEPH      CLOUDY    21   1  41 SE12      30.26F WCI   9
ST LOUIS       CLOUDY    23   5  46 SE13      30.42F WCI  11
SPIRIT OF STL  CLOUDY    23   5  46 SE7       30.41F WCI  15
KIRKSVILLE     CLOUDY    18   4  54 SE12      30.35F WCI   5
WICHITA        CLOUDY    34  10  37 E15       30.06F WCI  24
TOPEKA         CLOUDY    23   3  42 E12       30.21F WCI  12
OLATHE         CLOUDY    22   3  44 E10       30.23F WCI  11

......TENNESSEE......

CITY           SKY/WX    TMP DP  RH WIND       PRES   REMARKS
MEMPHIS        CLOUDY    31   8  38 E7        30.38F WCI  24
NASHVILLE      CLOUDY    27   3  35 NE8       30.44F WCI  19

......ARKANSAS.......

CITY           SKY/WX    TMP DP  RH WIND       PRES   REMARKS
FAYETTEVILLE   MOCLDY    36  13  38 S8        30.16F WCI  30
FT SMITH       MOCLDY    39  10  30 E14G22    30.22F WCI  31
LITTLE ROCK    PTCLDY    31  15  52 E7        30.38F WCI  24

......OKLAHOMA.......

CITY           SKY/WX    TMP DP  RH WIND       PRES   REMARKS
TULSA          PTCLDY    41  20  43 SE9       30.12F
MCALESTER      PTCLDY    48  27  44 VRB6      30.12F
OKLAHOMA CITY  PTCLDY    48  35  60 S17G25    30.01F

......IOWA............

CITY           SKY/WX    TMP DP  RH WIND       PRES   REMARKS
DES MOINES     LGT SNOW  14   9  80 SE10      30.33F WCI   1
QUAD CITIES    CLOUDY    17  -1  45 SE8       30.44F WCI   7

......ILLINOIS........

CITY           SKY/WX    TMP DP  RH WIND       PRES   REMARKS
QUINCY         CLOUDY    17  10  74 E12       30.39F WCI   4
CHICAGO        MOCLDY    11  -4  51 N6        30.47F WCI   1



USA.gov is the U.S. government's official web portal to all federal, state and local government web resources and services.